SCP
0 0 0 0 0 0 0 0 0 0 0 0 0 0 0 0 0 0 0 0 0 0 0 0 0 0 0 0 0 0 0 0
-0 -0 -0 -0 0 0 0 0 0 0 0 0 0 0 0 0 0 0 0 0 0 0 0 0 0 0 0 0 0 0 0 0
0 0 0 0 0 0 0 0 0 0 0 0 0 0 0 0 0 0 0 0 0 0 0 0 0 0 0 0 0 0 0 0
0 0 0 0 0 0 0 0 0 0 0 0 0 0 0 0 0 0 0 0 0 0 0 0 0 0 -0 0 -0 0 0 0
0 0 0 0 0 0 0 0 0 0 0 0 0 0 0 0 0 0 0 0 0 0 -0 -0 -0 -0 -0 -0 -0 -0 -0 -0
0 0 0 0 0 0 0 0 0 0 0 0 0 0 0 0 0 0 0 -0 -0 -0 -0 -0 -0 -0 -0 -0 -0 0 0 0
0 0 0 0 0 0 -0 0 0 0 0 0 0 0 0 0 0 0 0 0 0 0 0 0 0 0 -0 0 0 0 0 -0
0 0 0 0 -0 -0 0 0 0 0 0 0 0 0 0 0 0 0 0 0 0 0 0 0 0 0 -0 -0 0 0 0 0
-0 -0 -0 -0 0 0 0 0 0 0 0 0 0 0 0 0 0 0 0 0 0 0 0 0 0 0 0 0 0 0 0 -0
0 -0 -0 0 0 0 0 0 0 0 0 0 0 0 0 0 0 0 0 0 0 0 0 0 0 -0 -0 -0 -0 -0 -0 -0
0 0 0 0 0 0 0 0 0 0 0 0 0 0 0 0 0 -0 -0 -0 -0 -0 -0 -0 -0 0 0 -0 -0 -0 0 0
0 0 0 0 0 0 0 0 0 0 0 0 0 -0 -0 0 0 0 0 0 0 0 0 0 0 0 0 -0 -0 0 0 0
0 0 0 0 0 0 0 0 0 0 0 0 0 0 0 0 0 0 0 0 0 0 0 0 0 -0 -0 -0 -0 -0 0 0
0 0 0 0 0 0 0 0 0 0 0 0 0 0 0 0 0 0 0 0 -0 -0 -0 -0 0 -0 0 0 0 0 0 -0
0 0 0 0 0 0 0 0 0 0 0 0 0 0 0 0 -0 -0 -0 -0 -0 0 0 0 0 0 0 0 0 0 0 0
0 0 0 0 0 0 0 0 0 0 0 0 0 0 0 -0 -0 -0 -0 -0 -0 0 0 0 0 0 0 0 0 0 0 0
0 0 0 0 0 0 0 0 0 0 0 0 0 0 -0 -0 -0 -0 -0 -0 0 0 0 0 0 0 0 0 0 -0 -0 -0
0 0 0 0 0 0 0 0 0 0 0 0 0 -0 -0 -0 -0 -0 -0 0 0 0 0 0 0 0 0 0 0 0 -0 -0
0 0 0 0 0 0 0 0 0 0 0 0 -0 -0 -0 0 0 0 0 0 0 0 0 0 -0 0 0 0 0 0 0 0
0 0 0 0 0 0 0 0 0 0 0 -0 0 0 0 0 0 0 0 0 0 0 0 0 0 0 0 0 0 0 0 0
Wind_Speed_500mb
57 58 59 56 59 55 63 60 59 57 55 53 54 54 56 56 48 45 47 46 47 46 61 56 45 44 44 46 46 39 36 34
52 54 54 44 49 63 62 62 61 59 56 53 51 50 49 45 40 35 32 33 41 39 36 38 45 36 38 36 29 32 46 58
55 59 48 54 64 61 63 62 59 55 52 49 45 45 37 33 29 25 25 22 30 17 15 11 22 25 31 36 30 35 43 47
57 60 60 60 59 57 57 60 56 54 49 41 36 36 30 26 25 21 16 22 26 23 16 16 22 26 34 36 39 44 39 32
53 56 55 51 52 51 54 54 50 46 40 30 29 29 29 26 26 23 22 24 23 22 22 23 24 29 35 36 29 25 26 27
52 49 48 49 44 46 46 46 46 42 36 31 24 27 23 24 24 22 21 20 16 18 23 24 20 26 22 20 21 19 18 9
40 38 38 42 43 41 42 40 41 38 38 36 31 29 24 23 23 24 24 21 16 18 17 18 19 21 22 18 15 17 42 40
34 34 34 35 34 34 35 37 37 39 40 38 38 33 26 27 28 28 25 26 27 30 33 37 40 45 52 49 33 44 44 40
28 30 31 31 30 28 30 33 35 34 34 31 30 30 30 28 30 33 31 37 39 42 46 46 42 38 37 33 29 26 34 39
25 29 28 28 28 26 26 28 31 29 26 27 29 31 31 32 34 38 35 34 34 36 37 49 53 52 47 46 45 39 29 26
24 25 27 30 28 27 28 27 25 26 28 30 30 32 39 46 43 40 53 57 53 48 45 45 43 38 32 29 29 28 25 23
23 24 30 34 33 28 29 29 27 27 33 37 38 46 51 65 60 52 44 44 45 43 42 39 36 35 39 34 29 27 27 23
21 36 41 45 47 49 45 42 43 48 55 61 61 58 54 48 45 45 45 45 45 43 43 44 43 43 42 37 33 32 30 26
35 36 39 42 43 42 41 43 50 55 52 46 47 46 44 42 42 46 48 49 47 45 43 41 40 40 33 34 35 31 32 29
34 36 36 34 32 31 35 40 43 45 45 43 43 43 42 41 41 40 40 40 40 42 42 40 39 37 34 33 32 27 28 32
30 30 34 37 34 36 36 37 40 42 42 40 36 37 37 35 34 35 34 36 38 38 37 36 34 32 28 25 23 19 34 40
28 29 33 33 33 34 32 31 30 30 29 27 26 26 27 29 31 32 32 31 32 31 29 33 36 34 32 35 36 42 41 42
27 25 25 25 21 16 12 11 12 14 16 19 23 24 26 27 26 26 25 25 25 25 27 32 31 26 38 42 43 44 45 44
26 21 19 18 19 18 15 12 5 5 10 14 18 22 23 25 27 26 25 26 31 34 37 38 35 35 38 38 39 40 41 41
27 19 15 12 14 17 19 19 19 19 18 16 17 17 20 23 28 27 26 27 29 30 32 32 32 34 35 36 36 37 38 38
Wind_Direction_500mb
344 345 343 342 343 340 335 332 330 335 331 329 324 322 319 313 299 295 288 289 287 285 267 265 271 274 274 276 273 263 273 299
343 343 344 341 338 338 339 341 337 333 331 328 328 328 322 318 319 301 308 297 309 294 289 277 261 275 273 263 277 296 301 293
345 346 341 341 342 346 344 342 340 337 331 328 330 333 335 334 333 323 319 316 329 322 306 291 270 274 286 299 296 291 292 291
345 346 341 344 347 346 346 345 344 340 337 330 333 336 338 342 346 337 332 340 319 319 316 304 292 289 287 290 299 296 293 293
339 338 342 349 350 349 349 349 349 347 350 346 345 348 354 355 358 353 346 332 326 323 317 311 302 299 301 298 292 295 295 288
338 341 347 348 353 353 351 357 1 4 4 2 12 1 9 4 5 358 355 357 358 354 351 336 327 328 320 307 297 296 291 178
336 345 347 350 354 355 3 5 11 16 16 11 5 358 0 357 357 4 15 8 351 360 2 22 29 30 24 27 32 98 112 111
343 348 352 357 355 4 10 13 15 8 12 29 29 32 34 22 21 35 39 51 64 72 71 68 65 71 69 69 96 125 106 91
350 351 358 3 359 5 14 13 12 8 7 26 26 28 33 43 54 63 65 85 87 84 78 75 69 63 63 65 74 96 87 76
357 360 5 8 4 8 9 8 3 9 23 31 41 48 55 60 67 76 81 76 76 78 78 77 76 72 73 79 78 69 61 66
4 10 18 17 19 22 26 22 22 31 45 54 61 64 74 78 75 79 86 80 77 75 73 76 72 66 65 64 60 58 57 52
23 37 42 45 43 38 33 30 39 54 65 69 73 78 84 90 88 84 77 71 72 74 71 66 64 64 59 57 56 55 53 57
66 77 72 67 64 67 60 64 68 79 85 92 83 83 84 83 76 72 69 67 68 67 66 67 63 55 51 45 46 47 42 41
99 85 75 66 59 60 63 64 80 93 96 83 80 78 74 73 72 71 71 70 66 61 57 53 52 49 44 36 35 40 36 33
104 89 73 59 55 68 79 83 85 84 83 79 76 74 74 76 72 68 67 64 64 59 53 49 42 38 32 30 26 27 42 49
112 95 76 65 74 85 86 85 85 83 79 77 74 69 67 68 68 67 62 60 56 55 47 38 33 26 24 25 23 32 51 51
123 103 84 85 88 91 95 95 90 84 77 70 65 65 60 61 60 54 51 48 49 47 41 37 32 31 44 54 55 56 56 54
141 119 95 81 75 78 94 89 76 69 63 61 62 62 62 62 54 42 41 38 40 41 43 42 38 46 52 51 53 53 52 49
161 137 106 79 60 45 38 36 36 73 97 97 76 68 63 52 45 43 43 50 53 53 55 53 49 48 50 50 49 47 46 43
173 154 123 87 51 37 46 72 89 90 96 100 88 72 55 42 38 42 44 46 48 49 52 51 46 45 46 45 43 40 37 33
Wind_Speed_850mb
57 58 59 56 59 55 63 60 59 57 55 53 54 54 56 56 48 45 47 46 47 46 61 56 45 44 44 46 46 39 36 34
52 54 54 44 49 63 62 62 61 59 56 53 51 50 49 45 40 35 32 33 41 39 36 38 45 36 38 36 29 32 46 58
55 59 48 54 64 61 63 62 59 55 52 49 45 45 37 33 29 25 25 22 30 17 15 11 22 25 31 36 30 35 43 47
57 60 60 60 59 57 57 60 56 54 49 41 36 36 30 26 25 21 16 22 26 23 16 16 22 26 34 36 39 44 39 32
53 56 55 51 52 51 54 54 50 46 40 30 29 29 29 26 26 23 22 24 23 22 22 23 24 29 35 36 29 25 26 27
52 49 48 49 44 46 46 46 46 42 36 31 24 27 23 24 24 22 21 20 16 18 23 24 20 26 22 20 21 19 18 9
40 38 38 42 43 41 42 40 41 38 38 36 31 29 24 23 23 24 24 21 16 18 17 18 19 21 22 18 15 17 42 40
34 34 34 35 34 34 35 37 37 39 40 38 38 33 26 27 28 28 25 26 27 30 33 37 40 45 52 49 33 44 44 40
28 30 31 31 30 28 30 33 35 34 34 31 30 30 30 28 30 33 31 37 39 42 46 46 42 38 37 33 29 26 34 39
25 29 28 28 28 26 26 28 31 29 26 27 29 31 31 32 34 38 35 34 34 36 37 49 53 52 47 46 45 39 29 26
24 25 27 30 28 27 28 27 25 26 28 30 30 32 39 46 43 40 53 57 53 48 45 45 43 38 32 29 29 28 25 23
23 24 30 34 33 28 29 29 27 27 33 37 38 46 51 65 60 52 44 44 45 43 42 39 36 35 39 34 29 27 27 23
21 36 41 45 47 49 45 42 43 48 55 61 61 58 54 48 45 45 45 45 45 43 43 44 43 43 42 37 33 32 30 26
35 36 39 42 43 42 41 43 50 55 52 46 47 46 44 42 42 46 48 49 47 45 43 41 40 40 33 34 35 31 32 29
34 36 36 34 32 31 35 40 43 45 45 43 43 43 42 41 41 40 40 40 40 42 42 40 39 37 34 33 32 27 28 32
30 30 34 37 34 36 36 37 40 42 42 40 36 37 37 35 34 35 34 36 38 38 37 36 34 32 28 25 23 19 34 40
28 29 33 33 33 34 32 31 30 30 29 27 26 26 27 29 31 32 32 31 32 31 29 33 36 34 32 35 36 42 41 42
27 25 25 25 21 16 12 11 12 14 16 19 23 24 26 27 26 26 25 25 25 25 27 32 31 26 38 42 43 44 45 44
26 21 19 18 19 18 15 12 5 5 10 14 18 22 23 25 27 26 25 26 31 34 37 38 35 35 38 38 39 40 41 41
27 19 15 12 14 17 19 19 19 19 18 16 17 17 20 23 28 27 26 27 29 30 32 32 32 34 35 36 36 37 38 38
Wind_Direction_850mb
344 345 343 342 343 340 335 332 330 335 331 329 324 322 319 313 299 295 288 289 287 285 267 265 271 274 274 276 273 263 273 299
343 343 344 341 338 338 339 341 337 333 331 328 328 328 322 318 319 301 308 297 309 294 289 277 261 275 273 263 277 296 301 293
345 346 341 341 342 346 344 342 340 337 331 328 330 333 335 334 333 323 319 316 329 322 306 291 270 274 286 299 296 291 292 291
345 346 341 344 347 346 346 345 344 340 337 330 333 336 338 342 346 337 332 340 319 319 316 304 292 289 287 290 299 296 293 293
339 338 342 349 350 349 349 349 349 347 350 346 345 348 354 355 358 353 346 332 326 323 317 311 302 299 301 298 292 295 295 288
338 341 347 348 353 353 351 357 1 4 4 2 12 1 9 4 5 358 355 357 358 354 351 336 327 328 320 307 297 296 291 178
336 345 347 350 354 355 3 5 11 16 16 11 5 358 0 357 357 4 15 8 351 360 2 22 29 30 24 27 32 98 112 111
343 348 352 357 355 4 10 13 15 8 12 29 29 32 34 22 21 35 39 51 64 72 71 68 65 71 69 69 96 125 106 91
350 351 358 3 359 5 14 13 12 8 7 26 26 28 33 43 54 63 65 85 87 84 78 75 69 63 63 65 74 96 87 76
357 360 5 8 4 8 9 8 3 9 23 31 41 48 55 60 67 76 81 76 76 78 78 77 76 72 73 79 78 69 61 66
4 10 18 17 19 22 26 22 22 31 45 54 61 64 74 78 75 79 86 80 77 75 73 76 72 66 65 64 60 58 57 52
23 37 42 45 43 38 33 30 39 54 65 69 73 78 84 90 88 84 77 71 72 74 71 66 64 64 59 57 56 55 53 57
66 77 72 67 64 67 60 64 68 79 85 92 83 83 84 83 76 72 69 67 68 67 66 67 63 55 51 45 46 47 42 41
99 85 75 66 59 60 63 64 80 93 96 83 80 78 74 73 72 71 71 70 66 61 57 53 52 49 44 36 35 40 36 33
104 89 73 59 55 68 79 83 85 84 83 79 76 74 74 76 72 68 67 64 64 59 53 49 42 38 32 30 26 27 42 49
112 95 76 65 74 85 86 85 85 83 79 77 74 69 67 68 68 67 62 60 56 55 47 38 33 26 24 25 23 32 51 51
123 103 84 85 88 91 95 95 90 84 77 70 65 65 60 61 60 54 51 48 49 47 41 37 32 31 44 54 55 56 56 54
141 119 95 81 75 78 94 89 76 69 63 61 62 62 62 62 54 42 41 38 40 41 43 42 38 46 52 51 53 53 52 49
161 137 106 79 60 45 38 36 36 73 97 97 76 68 63 52 45 43 43 50 53 53 55 53 49 48 50 50 49 47 46 43
173 154 123 87 51 37 46 72 89 90 96 100 88 72 55 42 38 42 44 46 48 49 52 51 46 45 46 45 43 40 37 33